Wind_Speed
10 10 9 8 8 7 7 6 6 6 5 5 4 4 4 4 3 3 3 3 4 4 4 5 5 6 5 6 6 7 7 7 8 8 8 7 8 8 9 9 9 10 10
11 11 11 10 9 8 8 8 7 6 6 6 5 6 5 5 5 5 4 4 4 5 5 5 6 6 6 6 6 7 8 8 8 9 8 8 8 9 10 10 11 11 12
12 12 11 11 10 10 9 8 8 7 7 7 6 6 6 6 6 6 6 5 5 6 6 6 7 7 7 7 7 7 8 9 9 9 10 9 9 10 11 12 12 13 13
12 13 12 12 11 11 10 9 9 9 8 8 7 7 7 7 7 7 7 7 7 7 7 7 7 7 8 8 8 8 9 9 10 10 10 10 10 11 12 12 12 13 13
13 13 13 12 12 12 11 10 10 9 9 9 9 8 8 8 8 9 9 8 8 8 8 8 9 9 10 10 10 10 10 11 11 11 11 12 12 13 13 14 13 14 15
13 12 13 13 13 12 12 12 11 11 11 10 10 10 10 9 10 10 10 10 10 10 10 11 11 11 11 11 12 12 12 12 13 13 13 13 14 14 15 15 15 16 17
13 13 12 13 12 13 13 13 12 11 11 11 11 11 11 11 11 11 11 12 12 12 13 13 13 13 13 13 13 13 13 14 14 14 15 15 16 16 16 16 17 18 18
13 13 12 13 14 14 14 14 13 13 13 13 13 13 13 13 13 13 13 13 13 14 14 14 14 14 15 15 15 15 15 16 15 15 16 16 17 17 17 18 18 19 20
13 13 13 14 14 14 15 15 14 14 14 14 14 14 14 14 14 14 14 14 14 15 15 15 15 15 16 16 16 16 17 16 16 16 16 17 18 18 19 20 21 21 22
15 14 13 13 14 14 14 15 15 15 15 14 15 15 16 16 15 15 15 15 15 15 15 16 16 16 17 17 17 17 17 17 17 18 19 19 20 20 21 22 22 23 24
15 15 15 14 14 14 14 14 14 15 14 14 15 15 16 16 16 16 15 16 16 16 16 17 17 17 18 18 18 18 19 19 19 20 20 21 22 23 23 24 24 25 26
16 16 16 16 15 15 15 15 15 16 15 15 15 15 15 15 15 15 16 17 17 17 18 18 18 19 19 20 20 20 21 21 22 22 23 23 24 24 25 26 26 27 28
18 18 18 17 16 16 16 15 15 15 15 16 16 16 16 16 16 16 17 17 18 18 19 20 20 20 20 21 22 22 23 24 24 25 25 26 26 27 28 28 29 31 32
17 17 18 17 16 17 17 16 16 16 16 16 16 17 17 17 17 18 18 18 19 19 20 21 21 22 22 22 23 24 25 25 26 27 27 27 28 28 29 30 32 33 34
17 17 17 17 17 17 18 17 17 17 17 17 17 17 17 18 18 19 19 20 21 21 21 22 22 23 24 24 25 25 26 26 27 28 28 28 29 31 32 33 34 35 36
18 18 18 17 17 17 17 17 17 17 17 18 18 18 19 19 20 20 21 21 22 23 23 23 24 24 25 26 26 26 27 28 28 29 30 31 32 33 34 35 35 36 36
19 19 18 18 18 18 17 17 17 17 18 18 18 19 20 21 21 22 23 23 24 24 25 25 25 25 26 26 27 27 28 29 30 31 32 33 34 35 35 36 36 36 37
21 21 20 20 19 19 19 19 18 18 18 19 19 20 20 21 22 22 23 24 24 25 26 27 27 27 27 27 27 28 30 31 31 32 33 34 35 35 35 36 36 37 38
22 22 22 22 21 21 20 20 20 20 20 20 21 21 22 22 22 23 23 24 25 26 27 28 28 28 28 29 29 30 31 31 32 33 33 34 35 35 36 36 37 38 39
23 23 23 23 23 23 22 22 22 22 21 22 22 22 23 23 23 23 24 24 25 25 26 26 27 27 28 29 29 30 31 32 33 33 33 34 35 35 36 37 38 39 40
24 24 23 23 24 23 23 23 23 23 23 24 23 23 24 24 24 24 25 25 25 25 25 26 27 28 28 29 30 31 32 33 33 33 34 34 35 36 37 38 39 40 41
22 22 23 23 24 24 23 23 24 24 24 24 24 24 24 24 24 24 24 24 24 24 26 27 28 29 30 31 32 33 33 34 34 34 35 36 36 37 39 40 41 42 43
23 23 23 23 23 24 24 24 24 24 24 24 24 24 24 24 24 24 25 26 26 27 28 29 30 31 32 33 33 34 34 35 36 36 37 38 39 40 41 42 43 44 44
22 22 22 23 23 23 24 24 24 24 24 24 24 24 24 24 25 26 27 28 28 28 29 30 31 32 33 34 34 35 36 37 38 38 39 40 41 42 43 43 45 46 47
22 21 21 22 22 22 23 24 24 24 24 24 24 25 25 26 26 27 28 29 29 30 31 31 32 33 34 35 36 37 38 39 40 41 42 43 43 44 45 46 47 47 47
21 21 21 21 22 22 23 23 24 24 25 25 26 27 27 27 27 28 29 30 31 32 32 33 34 34 36 37 37 38 39 41 42 43 44 44 45 45 46 46 46 47 47
Wind_Direction
246 248 250 251 251 248 245 249 249 246 247 247 257 254 241 244 252 262 274 285 293 305 313 319 313 308 304 306 309 315 321 323 323 321 318 315 311 311 312 312 313 314 312
248 246 249 248 243 242 244 245 242 244 246 248 254 252 248 250 254 259 270 282 287 296 301 306 309 311 311 310 306 310 313 317 318 318 318 315 312 309 309 308 308 309 308
249 245 243 243 240 240 243 242 243 248 248 248 253 256 255 254 255 261 266 274 281 287 293 297 298 304 307 307 308 311 312 314 313 314 315 314 311 308 307 305 305 306 306
248 245 244 241 240 242 241 241 244 247 247 248 253 256 255 256 256 261 266 274 276 281 289 293 296 298 301 305 308 310 312 312 311 312 312 313 312 310 309 306 306 307 306
247 246 244 240 238 240 242 241 243 247 248 254 255 256 257 259 260 261 264 273 277 283 290 294 296 296 298 301 301 303 304 304 306 307 309 311 313 312 311 311 310 310 309
246 246 242 239 239 240 239 242 244 246 249 255 256 256 256 260 264 263 264 271 277 283 288 291 294 295 296 295 296 296 298 300 301 302 304 307 310 312 311 311 312 312 312
247 244 241 239 240 238 236 240 245 250 253 255 255 254 258 260 263 264 266 272 275 279 282 286 289 291 292 292 294 295 296 298 298 301 301 303 305 307 309 309 311 312 311
244 242 242 241 242 241 239 241 244 249 254 254 254 257 261 263 263 264 267 272 276 278 281 285 286 289 289 290 292 293 294 296 298 300 300 301 303 305 306 307 308 309 310
243 245 243 243 245 246 243 244 247 251 254 256 257 257 262 264 264 265 267 270 276 280 283 286 287 289 290 291 292 292 293 294 296 298 298 299 300 301 302 303 304 305 306
244 247 249 248 248 248 248 249 251 254 256 258 260 263 264 263 264 266 270 273 278 281 282 285 287 288 289 292 292 292 292 294 295 297 299 300 301 301 301 302 303 304 305
245 246 249 251 250 249 251 253 255 254 256 259 261 262 263 265 266 268 271 274 276 279 282 284 286 288 290 292 291 291 292 293 293 294 296 299 300 301 302 302 302 302 303
246 249 252 253 253 253 253 254 256 256 257 259 260 262 265 267 270 273 274 275 276 278 281 282 285 287 289 289 289 290 290 291 292 293 295 297 297 298 300 301 300 300 301
248 249 252 252 251 250 251 253 256 258 260 262 261 263 264 265 269 275 278 280 281 281 282 283 285 286 287 288 288 289 289 289 290 292 294 295 296 298 299 299 300 300 301
246 248 249 250 249 249 249 251 255 259 260 262 265 265 266 268 271 274 278 281 284 285 287 287 286 286 286 288 288 288 289 290 291 293 293 294 295 297 299 300 300 301 302
245 247 248 250 249 249 251 253 256 259 261 263 266 267 269 271 272 274 278 280 283 285 286 287 288 287 287 289 290 290 290 291 292 293 295 295 296 297 298 299 300 300 302
250 251 248 248 249 252 255 255 257 260 262 263 264 266 269 271 273 275 277 279 280 282 284 286 287 287 288 288 289 290 291 291 292 293 294 294 296 297 298 299 300 302 302
249 251 249 249 250 253 255 257 258 260 263 265 266 268 271 274 275 276 278 279 281 282 283 284 285 285 287 287 287 289 291 292 293 293 293 294 296 297 298 300 301 302 303
250 251 252 252 254 256 258 259 259 261 264 266 269 271 273 275 277 278 281 282 283 283 284 285 286 287 288 289 290 291 292 293 293 294 294 295 296 297 299 301 302 303 304
250 251 252 253 255 257 259 261 260 261 264 267 270 273 275 276 278 280 282 284 285 285 286 286 286 288 288 289 291 293 294 295 295 296 296 296 297 298 299 300 302 303 303
250 252 253 253 256 258 260 262 262 262 264 267 270 273 276 277 279 280 282 283 285 286 286 287 288 289 290 290 292 293 295 296 296 297 297 297 298 299 300 301 302 303 304
251 253 254 255 256 259 262 262 262 263 266 268 271 274 276 277 279 281 282 284 286 288 289 290 291 292 294 294 294 295 295 296 296 296 297 298 299 300 300 301 301 302 303
252 254 255 257 258 259 263 264 263 265 267 268 271 273 275 277 279 281 284 286 287 289 289 291 292 292 293 294 295 296 297 297 297 297 298 298 298 299 300 301 301 302 303
253 255 257 257 259 259 261 263 265 267 269 270 271 273 276 278 280 282 284 286 287 288 290 291 292 293 293 294 295 297 298 298 299 300 300 300 299 299 300 301 302 303 304
254 255 256 259 260 261 262 263 264 268 270 272 273 274 276 279 280 282 284 285 287 289 291 292 293 296 297 296 296 297 298 298 299 300 300 300 300 300 300 301 302 303 304
254 255 258 260 261 262 263 265 265 267 270 272 274 276 277 279 282 284 285 285 287 289 290 292 295 296 298 297 297 297 297 298 299 300 301 300 300 300 300 301 302 304 304
254 257 259 260 261 262 263 265 267 269 271 273 274 276 276 279 282 284 285 286 288 290 292 293 294 296 298 299 298 297 298 299 300 302 302 301 301 301 302 302 303 304 305
Height
5851 5852 5853 5854 5855 5855 5856 5857 5858 5859 5860 5860 5861 5861 5862 5863 5863 5864 5864 5864 5864 5864 5864 5864 5863 5863 5863 5862 5862 5861 5861 5860 5859 5859 5858 5857 5856 5856 5855 5854 5853 5852 5851
5848 5849 5850 5852 5853 5854 5855 5856 5857 5858 5859 5859 5860 5861 5861 5862 5862 5863 5863 5863 5863 5863 5863 5863 5863 5862 5862 5861 5861 5860 5859 5859 5858 5857 5856 5855 5854 5854 5853 5852 5851 5850 5849
5845 5846 5848 5849 5850 5852 5853 5854 5855 5856 5857 5858 5859 5859 5860 5861 5861 5862 5862 5862 5863 5862 5862 5862 5862 5861 5861 5860 5859 5859 5858 5857 5856 5856 5854 5853 5852 5851 5850 5850 5848 5847 5846
5843 5844 5845 5847 5848 5849 5851 5852 5853 5854 5855 5856 5857 5858 5858 5859 5860 5860 5861 5861 5861 5861 5861 5860 5860 5859 5859 5858 5857 5857 5856 5855 5854 5853 5852 5851 5850 5849 5848 5847 5845 5844 5843
5840 5841 5842 5844 5845 5847 5848 5850 5851 5852 5853 5854 5855 5856 5857 5857 5858 5858 5859 5859 5859 5859 5859 5858 5858 5857 5857 5856 5855 5855 5854 5853 5852 5851 5850 5849 5848 5846 5845 5844 5842 5841 5839
5837 5838 5840 5841 5843 5844 5846 5847 5849 5850 5851 5852 5853 5854 5854 5855 5855 5856 5856 5857 5857 5857 5857 5856 5856 5855 5854 5854 5853 5852 5851 5850 5849 5848 5847 5846 5845 5843 5842 5841 5839 5838 5836
5834 5835 5837 5839 5840 5842 5843 5845 5846 5848 5849 5849 5850 5851 5851 5852 5853 5853 5853 5854 5854 5854 5854 5853 5853 5852 5851 5851 5850 5849 5848 5847 5846 5845 5844 5843 5841 5840 5838 5837 5835 5833 5832
5832 5833 5834 5836 5837 5839 5840 5842 5843 5845 5846 5846 5847 5848 5849 5849 5850 5850 5850 5851 5851 5851 5850 5850 5849 5849 5848 5847 5846 5846 5845 5844 5842 5841 5840 5839 5837 5836 5834 5833 5831 5829 5827
5829 5830 5831 5833 5834 5835 5837 5838 5840 5841 5842 5843 5844 5844 5845 5846 5846 5847 5847 5847 5847 5847 5846 5846 5846 5845 5844 5843 5843 5842 5841 5839 5838 5837 5836 5834 5833 5831 5829 5828 5826 5824 5822
5825 5827 5828 5829 5831 5832 5833 5835 5836 5837 5838 5839 5840 5841 5841 5842 5842 5843 5843 5843 5843 5843 5842 5842 5841 5841 5840 5839 5838 5837 5836 5835 5834 5833 5831 5829 5828 5826 5824 5822 5820 5818 5816
5822 5823 5825 5826 5827 5828 5829 5831 5832 5833 5835 5836 5836 5837 5837 5838 5838 5839 5839 5839 5839 5839 5838 5838 5837 5836 5836 5835 5834 5833 5831 5830 5829 5828 5826 5825 5823 5821 5819 5816 5814 5812 5809
5818 5819 5821 5822 5823 5825 5826 5827 5828 5829 5830 5831 5832 5833 5833 5834 5834 5834 5834 5834 5834 5834 5834 5833 5832 5832 5831 5830 5829 5827 5826 5825 5824 5822 5821 5819 5817 5815 5812 5810 5807 5805 5802
5813 5815 5816 5818 5819 5820 5822 5823 5824 5825 5826 5827 5828 5829 5829 5830 5830 5830 5830 5830 5829 5829 5828 5828 5827 5826 5825 5824 5823 5822 5820 5819 5817 5816 5814 5812 5810 5808 5805 5803 5800 5797 5794
5809 5810 5812 5813 5815 5816 5817 5819 5820 5821 5822 5823 5823 5824 5824 5825 5825 5825 5825 5825 5824 5824 5823 5822 5822 5821 5820 5819 5817 5816 5814 5812 5811 5809 5807 5805 5803 5800 5798 5795 5792 5788 5785
5804 5806 5807 5809 5810 5811 5813 5814 5815 5816 5817 5818 5818 5819 5819 5820 5820 5820 5820 5820 5819 5819 5818 5817 5816 5815 5814 5812 5811 5809 5807 5805 5803 5801 5799 5797 5795 5792 5789 5786 5783 5779 5775
5800 5801 5803 5804 5805 5807 5808 5809 5810 5811 5812 5812 5813 5814 5814 5814 5814 5814 5814 5814 5813 5813 5812 5810 5809 5808 5807 5805 5803 5802 5800 5798 5796 5794 5791 5789 5786 5783 5780 5776 5773 5769 5765
5794 5796 5797 5799 5800 5802 5803 5804 5805 5806 5806 5807 5807 5808 5808 5809 5808 5808 5808 5807 5807 5806 5805 5804 5802 5801 5800 5798 5796 5794 5792 5790 5787 5785 5782 5779 5777 5773 5770 5766 5763 5759 5755
5789 5790 5792 5793 5795 5796 5798 5799 5799 5800 5801 5801 5802 5802 5802 5802 5802 5802 5801 5801 5800 5799 5798 5796 5795 5793 5792 5790 5788 5786 5783 5781 5778 5776 5773 5770 5767 5763 5760 5756 5752 5748 5744
5783 5785 5786 5788 5789 5791 5792 5792 5793 5794 5795 5795 5796 5796 5796 5796 5795 5795 5794 5794 5792 5791 5790 5788 5787 5785 5783 5782 5779 5777 5775 5772 5769 5766 5763 5760 5757 5753 5750 5746 5742 5738 5734
5777 5778 5780 5781 5783 5784 5785 5786 5787 5787 5788 5789 5789 5789 5789 5789 5788 5788 5787 5786 5785 5784 5782 5780 5779 5777 5775 5773 5771 5768 5766 5763 5760 5757 5753 5750 5747 5743 5740 5736 5731 5727 5723
5770 5772 5773 5775 5776 5777 5778 5779 5780 5781 5781 5782 5782 5782 5782 5782 5781 5781 5780 5779 5777 5776 5775 5773 5771 5769 5767 5765 5762 5760 5757 5754 5750 5747 5744 5740 5737 5733 5729 5725 5721 5716 5712
5763 5765 5766 5768 5769 5770 5771 5772 5773 5773 5774 5774 5775 5775 5775 5774 5774 5773 5772 5771 5770 5768 5767 5765 5763 5761 5759 5756 5753 5750 5747 5744 5741 5737 5734 5730 5726 5722 5718 5714 5709 5705 5700
5756 5758 5759 5760 5762 5763 5764 5765 5766 5766 5767 5767 5767 5767 5767 5767 5766 5766 5765 5764 5762 5761 5759 5757 5755 5752 5750 5747 5744 5741 5738 5735 5731 5727 5724 5720 5716 5711 5707 5703 5698 5693 5688
5749 5751 5752 5753 5754 5756 5757 5757 5758 5759 5759 5759 5760 5760 5759 5759 5758 5758 5757 5755 5754 5752 5750 5748 5746 5743 5740 5737 5734 5731 5728 5724 5720 5716 5712 5708 5704 5700 5695 5690 5685 5680 5675
5742 5744 5745 5746 5748 5749 5749 5750 5751 5751 5752 5752 5752 5752 5751 5751 5750 5749 5748 5746 5745 5743 5741 5739 5736 5733 5730 5727 5724 5721 5717 5713 5709 5705 5700 5696 5691 5687 5682 5677 5672 5667 5661
5736 5737 5738 5739 5740 5741 5742 5743 5743 5744 5744 5744 5744 5743 5743 5742 5741 5740 5739 5737 5736 5734 5732 5729 5726 5723 5720 5717 5713 5709 5705 5701 5697 5692 5688 5683 5678 5674 5669 5664 5659 5653 5648